Temperature
18 18 18 18 18 18 18 18 18 18 18 17 17 17 17 17 17 17 17 17 17 17 17 17 17 17 16 16 16 16 16 16 16 16 16 16 16 16 16 16 16 16 16
18 18 18 18 18 18 18 18 18 18 17 17 17 17 17 17 17 17 17 17 17 17 17 17 17 17 16 16 16 16 16 16 16 16 16 16 16 16 16 16 16 16 16
18 18 18 18 18 18 18 18 18 17 17 17 17 17 17 17 17 17 17 17 17 17 17 16 16 16 16 16 16 16 16 16 16 16 16 16 16 16 16 16 16 16 16
18 18 18 18 18 18 18 18 18 18 17 17 17 17 17 17 17 17 17 17 17 17 16 16 16 16 16 16 16 16 16 16 16 16 16 16 16 16 16 16 16 15 15
18 18 18 18 18 18 18 18 18 17 17 17 17 17 17 17 17 16 16 16 16 16 16 16 16 16 16 16 16 16 16 16 16 16 16 15 15 16 15 15 15 15 15
18 18 18 18 18 18 17 18 17 17 17 17 17 17 17 16 16 16 16 16 16 16 16 16 16 16 16 16 16 16 16 16 16 16 16 15 15 15 15 15 15 15 15
18 18 18 17 17 17 17 17 17 17 17 17 17 17 16 16 16 16 16 16 16 16 16 16 16 16 16 16 15 15 15 15 15 15 15 15 15 15 15 15 15 15 15
18 18 18 17 17 17 17 17 17 17 17 17 17 17 16 16 16 16 16 16 16 16 16 16 16 16 16 16 15 15 15 15 15 15 15 15 15 15 15 15 15 15 14
18 18 17 17 17 17 17 17 17 17 17 17 17 17 16 16 16 16 16 16 16 16 15 15 15 15 15 15 15 15 15 15 15 15 15 15 15 15 14 14 14 14 14
18 18 17 17 17 17 17 17 17 17 17 17 17 17 17 16 16 15 16 16 15 15 15 15 15 15 15 15 15 15 15 15 15 15 15 15 15 14 14 14 14 14 14
18 18 17 17 17 17 17 17 17 17 17 17 17 17 17 16 16 16 15 15 15 15 15 15 15 15 15 15 15 15 15 15 15 14 14 14 14 14 14 14 13 13 13
18 18 17 17 17 17 17 17 17 17 17 17 17 16 16 16 16 16 15 15 15 15 15 15 15 14 14 14 14 14 14 14 14 14 14 14 14 14 14 13 13 13 13
18 18 17 17 17 17 17 17 17 17 17 17 16 16 16 16 16 16 16 15 15 14 14 14 14 14 14 14 14 14 14 14 14 14 14 14 14 13 13 13 13 13 13
18 18 17 17 17 17 17 17 17 17 17 17 16 16 16 16 16 16 16 15 15 14 14 14 14 14 14 13 13 13 13 13 13 13 13 13 13 13 13 13 13 13 13
17 17 17 17 17 17 17 17 17 17 17 17 16 16 16 16 16 16 16 15 15 14 14 14 13 13 13 13 13 13 13 13 13 13 13 13 13 13 13 12 12 12 12
17 17 17 17 17 17 17 17 17 17 17 17 16 16 16 16 16 15 15 15 15 15 14 13 13 13 13 13 13 13 12 12 12 12 12 12 12 12 12 12 12 12 12
17 17 17 17 17 17 17 17 17 16 16 16 16 16 16 16 15 15 15 15 15 14 14 13 13 12 12 12 12 12 12 12 12 12 12 12 12 12 12 12 12 12 12
18 17 17 17 17 17 17 17 16 16 16 16 16 16 16 16 15 15 15 15 14 14 14 13 13 12 12 12 12 12 12 12 12 11 11 11 11 11 11 11 11 11 11
18 17 17 17 17 17 17 16 16 16 16 16 16 16 16 15 15 15 15 15 14 14 14 13 13 12 12 12 12 12 11 11 11 11 11 11 11 11 11 11 10 10 10
18 17 17 17 17 17 16 16 16 16 16 16 16 15 15 15 15 15 15 14 14 14 13 13 13 12 12 11 11 11 11 11 11 11 11 10 10 10 10 10 10 10 10
18 17 17 17 17 17 17 16 16 16 16 16 15 15 15 15 15 14 14 14 14 13 13 13 12 12 12 11 11 11 11 11 10 10 10 10 10 10 10 10 10 9 9
18 17 17 17 17 17 16 16 16 16 16 15 15 15 15 14 14 14 14 14 13 13 13 13 12 12 12 11 11 11 10 10 10 10 10 10 10 10 9 9 9 9 9
18 17 17 17 17 17 16 16 16 16 15 15 15 15 14 14 14 14 14 13 13 13 12 12 12 12 11 11 11 11 10 10 10 10 10 10 10 9 9 9 9 9 9
17 17 17 17 17 16 16 16 16 15 15 15 15 14 14 14 14 13 13 13 13 12 12 12 12 11 11 11 11 10 10 10 10 10 10 9 9 9 9 9 9 8 8
17 17 17 17 16 16 16 15 15 15 15 15 14 14 14 14 13 13 13 13 12 12 12 12 11 11 11 11 10 10 10 10 10 10 9 9 9 9 9 9 8 8 8
17 17 17 16 16 16 16 15 15 15 15 14 14 14 14 13 13 13 13 13 12 12 12 12 11 11 11 10 10 10 10 10 10 9 9 9 9 8 8 8 8 8 8
Wind_Speed
1 2 2 2 2 3 3 3 3 4 4 4 4 4 3 3 3 3 3 4 6 6 6 7 7 7 8 8 9 8 8 8 9 9 10 10 10 10 10 10 10 10 10
1 1 1 2 2 2 3 3 3 4 3 3 3 3 3 3 3 3 2 2 4 5 5 5 6 6 7 6 7 7 7 7 8 9 10 10 9 9 9 9 10 10 11
2 2 1 1 1 3 4 4 4 4 4 4 4 3 3 3 3 3 2 2 1 3 4 5 5 6 6 6 6 7 7 6 7 7 8 8 9 9 8 9 9 10 11
2 2 2 1 1 3 3 3 3 4 4 4 3 3 3 3 3 3 3 2 1 1 2 2 4 5 6 6 6 8 8 7 7 8 8 8 7 8 9 9 9 9 10
3 3 2 1 2 2 2 3 3 3 4 4 3 3 3 2 2 2 2 2 1 1 1 1 0 1 4 5 6 7 7 8 8 8 8 8 8 8 7 7 8 8 8
3 3 2 2 3 2 2 3 4 4 4 4 4 4 3 2 3 2 2 2 2 2 1 1 1 2 2 2 3 5 5 6 7 8 8 9 9 8 8 8 7 7 7
3 3 2 2 2 2 2 3 4 4 3 3 4 3 3 3 2 1 2 2 2 2 2 1 1 1 1 2 1 1 2 3 5 5 5 5 6 6 6 6 6 7 7
2 2 2 2 2 2 2 3 4 3 2 2 2 2 1 2 2 2 1 1 1 2 2 1 1 1 1 1 2 1 2 2 3 4 4 4 4 4 4 4 4 4 4
1 2 2 2 2 2 2 2 3 3 2 1 1 2 2 2 0 2 2 2 1 1 2 2 2 1 1 1 1 2 1 1 1 1 2 3 3 4 4 4 4 3 2
1 1 2 3 2 2 2 3 3 2 3 2 1 0 1 2 2 0 1 2 2 2 2 2 3 2 2 1 1 2 2 1 1 0 1 2 3 3 3 4 3 2 2
2 1 1 1 2 2 2 2 2 2 2 2 2 1 1 1 1 2 1 1 2 2 2 2 2 2 2 2 2 2 2 2 1 1 1 2 2 2 2 2 2 2 2
1 1 1 1 1 1 2 2 2 3 2 2 2 2 2 2 2 2 2 1 1 1 2 3 3 3 3 3 3 4 5 4 4 3 4 3 3 2 3 2 1 0 0
1 1 1 1 0 1 2 2 2 2 2 3 3 2 2 2 2 3 3 2 1 1 2 2 3 3 3 4 4 6 6 6 6 5 5 4 4 4 4 4 3 3 3
1 1 1 1 1 1 1 2 2 2 2 2 2 2 2 2 3 3 3 3 2 1 1 1 2 3 4 5 6 7 7 8 8 7 7 7 6 6 6 6 5 5 5
0 1 1 1 1 1 1 2 2 2 2 2 2 2 2 1 2 2 3 4 4 2 1 0 1 2 4 6 8 8 8 9 9 8 8 8 8 9 9 9 8 8 8
1 1 1 1 1 1 1 1 1 1 2 1 2 2 1 1 1 2 2 2 2 3 2 1 1 1 3 6 8 9 8 10 11 10 10 10 10 11 11 10 10 10 9
1 1 1 1 1 1 1 2 1 1 2 1 1 2 2 2 2 2 3 3 3 3 4 2 1 2 3 4 5 7 8 8 9 11 11 11 11 11 11 11 11 11 11
1 1 1 2 2 1 1 2 2 2 2 2 2 2 2 2 3 2 3 4 3 3 5 4 2 2 3 3 3 5 6 6 7 10 11 11 11 11 11 11 11 11 10
2 1 2 2 2 2 2 2 2 2 2 2 2 2 2 3 3 3 3 4 4 4 4 5 3 2 2 2 3 3 4 4 6 7 8 9 9 10 9 10 10 9 9
2 2 2 2 1 2 2 2 2 3 2 2 2 3 2 3 3 4 4 4 5 6 5 5 4 3 2 1 2 2 2 2 3 4 5 6 7 7 7 7 7 7 7
3 2 2 2 2 2 2 3 3 3 3 3 3 3 3 4 6 5 4 5 6 5 5 5 4 3 2 2 1 1 2 1 1 2 2 3 3 3 4 4 4 5 5
3 3 2 2 2 1 3 4 4 3 3 3 3 2 3 4 5 6 7 8 8 7 6 5 3 3 3 2 2 2 2 1 0 0 1 1 1 1 1 2 2 3 3
3 3 3 2 2 2 4 4 4 3 3 2 2 3 3 3 5 5 6 7 6 6 7 5 5 4 4 4 4 3 2 2 1 1 1 0 0 0 1 1 1 1 2
4 4 4 4 3 3 4 5 6 4 3 3 3 3 3 3 4 6 6 5 4 3 3 3 4 3 3 4 5 4 3 2 1 1 1 0 0 1 1 1 0 1 2
4 4 4 4 4 3 4 6 6 4 3 3 2 3 4 4 5 7 7 6 5 3 4 5 4 4 4 5 6 4 3 2 0 1 1 1 0 1 1 1 2 2 3
4 4 3 4 4 4 5 7 8 4 4 3 2 2 4 5 7 8 6 6 5 3 3 3 4 4 4 5 5 4 4 3 1 1 1 1 1 1 1 1 2 2 3
Wind_Direction
74 66 73 61 52 56 75 72 79 86 91 101 114 124 128 138 150 155 171 185 187 194 196 189 191 192 191 192 191 192 197 202 204 204 205 204 205 205 204 207 206 204 204
117 94 72 64 59 56 75 86 89 95 92 93 93 106 121 130 138 132 150 186 195 195 202 195 195 199 193 193 196 190 194 202 208 211 209 209 209 208 207 208 212 213 213
141 135 104 76 67 73 82 87 86 89 94 89 83 89 97 102 95 99 105 109 165 189 192 191 192 195 194 197 195 193 195 199 206 209 205 207 208 206 207 211 215 220 220
146 131 109 94 82 86 95 100 95 89 85 83 77 70 78 80 80 87 93 92 106 159 191 193 204 206 201 201 202 204 204 210 213 213 212 209 212 214 216 219 222 226 226
138 130 117 113 100 95 91 108 99 106 102 93 87 73 69 67 61 77 79 89 99 109 141 271 293 221 211 216 218 213 217 217 218 221 219 217 217 219 220 225 225 228 229
130 132 123 107 109 98 92 101 104 99 107 104 93 78 64 61 57 53 52 59 57 55 57 28 348 313 297 249 236 228 229 221 216 219 222 222 222 226 232 229 229 229 230
132 131 123 114 117 120 127 122 115 111 111 108 96 73 48 48 50 39 49 53 43 39 44 41 28 353 335 342 322 262 246 228 217 213 216 220 222 223 223 225 230 232 232
123 143 135 149 143 132 119 124 127 128 149 135 117 111 60 20 18 31 53 63 27 42 42 27 28 23 358 347 344 313 275 260 230 216 208 207 205 199 203 209 216 213 227
99 132 147 150 152 155 157 159 153 150 166 178 132 143 148 198 320 21 37 39 35 44 27 23 22 22 18 15 359 358 325 316 326 213 198 198 202 197 187 181 168 174 180
64 115 145 155 161 166 169 183 176 163 151 173 170 125 157 154 160 129 22 32 38 37 32 33 29 29 38 55 52 55 62 39 359 325 165 168 169 178 188 186 178 181 201
34 57 104 139 164 176 183 177 166 167 170 172 169 153 121 108 144 165 196 23 41 35 38 40 39 39 41 50 45 50 56 63 65 73 113 136 138 163 172 173 180 193 215
10 26 77 108 139 164 181 186 178 173 178 171 170 168 166 165 177 172 186 182 76 31 38 40 39 39 48 49 57 60 62 69 71 71 74 69 69 78 87 102 106 109 104
343 333 38 59 124 159 159 160 168 177 176 173 178 184 182 186 164 157 156 156 124 50 39 36 32 41 50 54 56 56 62 65 70 78 83 80 76 80 81 82 73 69 72
258 345 30 48 82 120 144 146 157 181 175 182 185 173 173 191 173 168 164 153 143 95 52 25 32 39 47 56 56 59 62 65 73 85 90 87 79 76 83 81 75 74 78
168 70 52 71 98 114 141 147 158 185 174 169 162 155 157 171 171 175 171 169 160 161 149 39 42 32 50 61 57 63 66 67 72 81 91 91 84 79 80 78 77 79 82
129 103 84 84 93 100 127 143 148 160 141 143 141 132 130 129 131 142 155 156 156 154 152 103 66 54 65 72 67 67 67 68 68 72 78 82 82 80 78 79 78 78 79
135 145 153 152 140 124 120 129 135 132 137 130 119 125 120 117 122 133 138 133 132 135 139 116 80 76 70 72 67 69 68 68 70 69 74 79 80 80 79 78 77 77 79
151 157 149 144 145 129 126 136 134 116 129 130 127 119 115 116 106 116 127 129 134 134 138 138 113 91 78 81 76 74 70 70 72 69 72 74 78 79 79 78 77 75 76
141 130 130 136 134 130 126 132 135 122 121 128 128 127 127 119 107 112 116 119 120 118 119 134 129 108 93 89 81 78 69 59 71 69 69 68 71 75 76 77 77 79 79
147 144 136 139 138 133 135 135 130 122 113 103 112 117 120 128 132 128 119 118 119 115 116 123 123 116 101 96 103 101 81 57 57 60 63 64 63 68 70 74 77 83 87
159 152 139 131 132 143 154 152 148 136 121 105 93 98 108 115 125 132 134 135 131 128 128 129 129 119 118 139 152 159 129 92 50 46 55 49 53 58 61 72 81 85 95
158 149 151 153 150 166 149 144 142 137 131 126 117 98 98 103 115 115 120 132 140 144 147 144 147 159 172 173 161 156 141 128 129 26 101 49 69 70 48 72 101 109 113
171 170 176 166 173 182 161 152 144 142 139 138 137 130 123 110 113 118 112 112 114 123 144 155 162 180 184 183 170 168 177 173 185 160 145 93 44 351 316 15 133 148 150
185 191 193 188 185 198 172 162 152 146 141 141 141 146 142 133 134 131 124 116 110 111 133 153 169 181 181 180 179 175 168 141 94 96 157 178 277 282 327 338 307 216 192
192 196 197 192 194 209 186 172 161 153 148 147 143 140 144 140 138 136 132 128 118 101 96 105 117 126 137 146 152 140 135 139 170 250 188 189 236 293 300 294 282 271 249
190 186 197 204 201 208 197 182 171 165 164 163 147 137 141 143 142 142 142 141 141 140 121 102 88 91 106 124 143 163 171 171 162 219 189 184 184 195 271 277 278 275 264
Height
1540 1541 1542 1543 1543 1544 1544 1545 1546 1546 1547 1548 1548 1549 1550 1551 1551 1552 1552 1553 1553 1553 1554 1555 1555 1556 1557 1558 1559 1560 1561 1562 1563 1564 1566 1567 1568 1569 1570 1571 1573 1574 1575
1542 1543 1544 1544 1545 1546 1546 1546 1547 1547 1548 1548 1549 1550 1550 1551 1552 1552 1552 1553 1553 1553 1553 1554 1554 1555 1556 1557 1558 1559 1560 1561 1562 1563 1564 1565 1566 1567 1568 1569 1571 1572 1573
1544 1544 1545 1546 1546 1547 1547 1547 1548 1548 1549 1549 1550 1551 1551 1552 1552 1552 1552 1553 1553 1553 1553 1553 1553 1554 1554 1555 1556 1557 1558 1559 1560 1561 1563 1563 1564 1565 1566 1567 1568 1569 1570
1545 1546 1546 1547 1547 1548 1548 1548 1549 1549 1549 1550 1550 1551 1551 1552 1552 1552 1553 1553 1552 1553 1553 1553 1553 1553 1553 1554 1555 1556 1557 1557 1558 1559 1560 1561 1562 1563 1564 1565 1566 1567 1567
1546 1546 1547 1547 1548 1548 1549 1549 1549 1549 1550 1550 1551 1551 1551 1552 1552 1553 1553 1553 1553 1553 1553 1553 1553 1553 1553 1554 1554 1555 1555 1555 1556 1557 1558 1558 1559 1560 1561 1562 1563 1564 1565
1547 1547 1547 1548 1548 1549 1549 1549 1550 1550 1550 1551 1551 1551 1552 1552 1552 1553 1553 1553 1553 1553 1553 1553 1553 1553 1553 1553 1553 1553 1553 1554 1554 1555 1556 1556 1557 1558 1559 1560 1560 1561 1562
1547 1548 1548 1548 1548 1549 1549 1549 1550 1550 1550 1551 1551 1552 1552 1552 1552 1553 1553 1553 1553 1553 1553 1553 1552 1552 1552 1552 1552 1552 1552 1552 1552 1553 1553 1554 1554 1555 1556 1557 1558 1558 1559
1547 1548 1548 1548 1548 1549 1549 1549 1550 1550 1550 1551 1551 1551 1552 1554 1552 1552 1552 1552 1553 1552 1552 1552 1552 1552 1551 1551 1551 1551 1551 1551 1551 1551 1551 1552 1552 1553 1554 1554 1555 1555 1556
1547 1547 1547 1548 1548 1548 1549 1549 1549 1549 1550 1550 1551 1552 1551 1552 1552 1553 1552 1552 1552 1552 1552 1551 1551 1551 1551 1550 1550 1550 1550 1549 1549 1549 1549 1550 1550 1551 1552 1552 1553 1553 1553
1546 1547 1547 1547 1547 1547 1548 1548 1548 1549 1549 1549 1550 1550 1551 1551 1551 1552 1552 1552 1552 1551 1551 1550 1550 1550 1550 1549 1549 1549 1549 1548 1548 1548 1548 1548 1549 1549 1550 1550 1550 1551 1552
1546 1546 1546 1546 1546 1546 1547 1547 1547 1548 1548 1548 1549 1549 1550 1550 1550 1551 1551 1551 1551 1551 1550 1550 1550 1549 1549 1548 1548 1548 1547 1547 1547 1546 1546 1547 1547 1548 1548 1548 1549 1549 1549
1545 1545 1545 1545 1545 1545 1546 1546 1546 1547 1547 1547 1548 1548 1548 1548 1548 1549 1549 1549 1550 1550 1550 1549 1549 1548 1548 1548 1547 1547 1546 1546 1545 1546 1546 1546 1546 1546 1546 1547 1547 1547 1548
1544 1544 1544 1544 1544 1544 1544 1545 1545 1545 1546 1546 1546 1547 1547 1547 1547 1548 1548 1548 1548 1548 1548 1548 1548 1548 1548 1547 1547 1546 1545 1545 1545 1545 1545 1545 1545 1545 1545 1545 1546 1546 1546
1543 1543 1543 1543 1543 1543 1543 1543 1544 1544 1544 1544 1545 1545 1545 1545 1546 1546 1546 1546 1546 1547 1547 1548 1547 1547 1547 1547 1546 1546 1545 1544 1544 1544 1544 1544 1544 1544 1544 1544 1545 1545 1545
1542 1542 1542 1542 1542 1542 1542 1542 1542 1543 1543 1543 1543 1543 1544 1544 1544 1544 1544 1545 1545 1545 1546 1546 1546 1546 1546 1546 1546 1545 1545 1544 1544 1543 1543 1543 1543 1543 1543 1543 1544 1544 1544
1541 1541 1541 1541 1541 1541 1542 1542 1541 1542 1542 1542 1542 1542 1542 1542 1543 1543 1543 1543 1543 1544 1544 1545 1545 1545 1546 1546 1546 1545 1545 1544 1544 1543 1543 1543 1543 1543 1543 1543 1543 1543 1543
1541 1541 1541 1541 1541 1541 1541 1541 1541 1541 1541 1541 1541 1541 1541 1541 1541 1541 1541 1541 1541 1542 1542 1543 1544 1545 1545 1545 1545 1545 1545 1544 1544 1544 1543 1543 1543 1543 1543 1543 1543 1543 1542
1540 1540 1540 1540 1540 1540 1540 1540 1540 1540 1540 1540 1540 1540 1540 1540 1540 1540 1540 1540 1540 1541 1542 1542 1543 1544 1544 1545 1545 1545 1545 1545 1544 1544 1543 1543 1543 1543 1543 1543 1542 1542 1542
1539 1539 1539 1539 1539 1539 1539 1540 1540 1539 1539 1539 1539 1539 1539 1539 1539 1539 1539 1539 1540 1540 1541 1542 1543 1544 1544 1545 1545 1545 1545 1545 1545 1544 1544 1543 1543 1543 1543 1542 1542 1542 1542
1537 1538 1538 1538 1538 1539 1539 1539 1539 1539 1538 1538 1538 1538 1538 1538 1538 1538 1538 1539 1539 1540 1541 1541 1542 1543 1543 1544 1545 1545 1545 1545 1545 1544 1544 1543 1543 1543 1543 1542 1542 1542 1542
1536 1536 1537 1537 1537 1538 1538 1538 1538 1538 1538 1538 1538 1538 1538 1538 1538 1538 1538 1539 1539 1540 1540 1541 1541 1542 1543 1543 1544 1544 1544 1544 1544 1544 1544 1544 1543 1543 1542 1542 1541 1541 1541
1534 1534 1535 1535 1536 1536 1537 1537 1537 1537 1537 1537 1537 1537 1537 1538 1538 1538 1538 1539 1539 1540 1540 1540 1541 1541 1542 1542 1543 1543 1543 1543 1543 1544 1543 1543 1543 1542 1542 1542 1541 1541 1541
1532 1532 1533 1534 1534 1535 1535 1536 1536 1536 1536 1536 1536 1536 1537 1537 1537 1538 1538 1538 1539 1539 1540 1541 1541 1541 1541 1541 1542 1542 1543 1543 1543 1543 1543 1542 1542 1542 1542 1541 1541 1541 1540
1529 1530 1531 1532 1532 1533 1534 1534 1534 1534 1534 1535 1535 1535 1536 1536 1537 1537 1538 1538 1538 1539 1540 1540 1540 1541 1541 1541 1541 1542 1542 1542 1542 1543 1543 1542 1542 1541 1541 1541 1540 1540 1540
1527 1527 1528 1529 1530 1530 1531 1532 1532 1532 1532 1533 1533 1534 1535 1535 1536 1537 1537 1537 1538 1539 1539 1540 1540 1540 1540 1541 1541 1541 1541 1541 1541 1541 1541 1541 1540 1540 1540 1540 1540 1539 1539
1524 1524 1525 1526 1527 1528 1529 1530 1530 1530 1531 1531 1532 1532 1533 1534 1535 1536 1536 1537 1537 1538 1539 1539 1539 1539 1540 1540 1540 1540 1540 1540 1540 1540 1540 1539 1539 1538 1538 1538 1538 1538 1537